Hourly Data Report for October 28, 2016

All times are specified in Local Standard Time (LST). Add 1 hour to adjust for Daylight Saving Time where and when it is observed.

SAINT JOHN A
NEW BRUNSWICK

45°18'58.000" N
65°53'24.000" W
108.80 m
8104901
71609
YSJ

Download Data

Hourly Data (October 2016)
Hourly Data Report for October 28, 2016
Temp Definition
°C
Dew Point Temp Definition
°C
Rel Hum Definition
%
Wind Dir Definition
10's deg

Wind Spd Definition
km/h
Visibility Definition
km
Stn Press Definition
kPa
Hmdx Definition


Wind Chill Definition


Weather Definition


TIME
00:00 Legend Double Dagger -0.4 -1.7 91 3 9 24.1 101.85   -4 LegendNANA
01:00 Legend Double Dagger -0.1 -1.4 91 3 5 24.1 101.81   -2 LegendNANA
02:00 Legend Double Dagger 0.6 -0.6 92 6 5 24.1 101.73     Cloudy
03:00 Legend Double Dagger 3.0 0.1 81 12 9 24.1 101.66     LegendNANA
04:00 Legend Double Dagger 3.4 -0.3 77 11 14 24.1 101.56     LegendNANA
05:00 Legend Double Dagger 3.5 -0.5 75 11 16 24.1 101.57     Mostly Cloudy
06:00 Legend Double Dagger 3.6 -0.8 73 10 16 24.1 101.59     LegendNANA
07:00 Legend Double Dagger 3.4 -0.8 74 11 17 24.1 101.52     LegendNANA
08:00 Legend Double Dagger 4.3 0.1 74 11 22 24.1 101.53     Mostly Cloudy
09:00 Legend Double Dagger 4.5 -0.3 71 10 22 24.1 101.43     LegendNANA
10:00 Legend Double Dagger 5.0 -0.2 69 9 26 24.1 101.36     LegendNANA
11:00 Legend Double Dagger 5.3 -1.0 64 10 31 24.1 101.27     Mostly Cloudy
12:00 Legend Double Dagger 4.2 1.6 83 9 20 9.7 101.17     Rain,Fog
13:00 Legend Double Dagger 3.7 2.4 91 7 21 8.1 101.03     Rain,Fog
14:00 Legend Double Dagger 4.3 4.3 100 7 19 8.1 100.93     Rain,Fog
15:00 Legend Double Dagger 4.9 4.9 100 8 23 6.4 100.88     Rain,Fog
16:00 Legend Double Dagger 4.8 4.8 100 7 19 6.4 100.84     Rain,Fog
17:00 Legend Double Dagger 4.6 4.6 100 6 23 6.4 100.73     Rain,Fog
18:00 Legend Double Dagger 4.4 4.4 100 7 21 6.4 100.70     Rain,Fog
19:00 Legend Double Dagger 4.3 4.3 100 6 26 6.4 100.64     Rain,Fog
20:00 Legend Double Dagger 4.1 4.1 100 4 23 8.1 100.55     Rain,Fog
21:00 Legend Double Dagger 3.7 3.7 100 4 24 8.1 100.44     Rain,Fog
22:00 Legend Double Dagger 4.3 4.3 100 3 19 12.9 100.35     Rain
23:00 Legend Double Dagger 4.5 4.5 100 3 16 12.9 100.30     Rain

Notes on Data Quality.

Legend

  • E = Estimated
  • M = Missing
  • NA = Not Available
  • ‡ = Partner data that is not subject to review by the National Climate Archives
Date modified: